星链-11336 (STARLINK-11336)

导读 | 豆包AI

STARLINK-11336是美国SpaceX公司星链计划的卫星,于2024年10月30日发射升空,归属于美国。星链项目旨在构建全球卫星互联网星座,该卫星入轨后,将和其他星链卫星协同工作,为全球不同区域用户提供低延迟、高速率的宽带互联网接入服务。

基本信息
目录编号:
61698
目录名称:
STARLINK-11336
国际标识:
2024-195M
轨道中心:
EARTH
卫星名称:
星链-11336
卫星全名:
星链-11336 (STARLINK-11336)
卫星状态:
已陨落 最后检测时间 2025-12-11
发射日期:
2024-10-30 UTC
国别 :
美国 (US)
星等 :
--
轨道信息
数据来源 国际轨道数据
星历时间: 2025-12-11T12:06:18+0800
轨道信息已过期94天
半长轴: 6572.488km
偏心率: 0.0008448
轨道倾角: 53.136°
近地点辐角 310.411°
升交点赤经 89.866°
平近点角 49.619°
近地点: 188.8km
远地点: 199.906km
周期: 88.380分钟
每日圈数: 16.293263
详细信息
固有亮度:
5
最大亮度:
2.5
卫星平台:
Starlink V1.0
覆盖范围:
全球
运营商:
太空探索技术公司
运营商所在国:
美国
制造商(研发单位):
太空探索技术公司
制造商所在国:
美国
使用方式:
暂无
卫星简介
Starlink 计划是 SpaceX 推出的全球卫星互联网项目,通过发射低轨道卫星,为全球尤其是偏远地区提供高速、低延迟的互联网服务。自 2019 年起,Starlink 已部署数千颗卫星,旨在缩小全球数字鸿沟,推动互联网普及。该项目还为军事、航空等行业提供通信支持,带来广泛经济效益。